Weather Roundup
Issued by NWS

Home | Current Version | Previous Version | Graphics & Text | Print | Product List | Glossary Off
Versions: 1 2 3 4 5 6 7 8 9 10 11 12 13 14 15 16 17 18 19 20 21 22 23 24 25 26 27 28 29 30 31 32 33 34 35 36 37 38 39 40 41 42 43 44 45 46 47 48 49 50

000
NZUS93 KARX 281759
HRRWXR

CURRENT HOURLY OBSERVATIONS ACROSS
MUCH OF THE UPPER MISSISSIPPI VALLEY
NATIONAL WEATHER SERVICE LA CROSSE WI
100 PM CDT SUN AUG 28 2016


...SOUTHEAST MINNESOTA...


CITY           SKY/WX    TMP DP  RH WIND       PRES   REMARKS
ROCHESTER      MOSUNNY   79  69  71 S10       30.18F
ROCHESTER/MAYO MOCLDY    78  67  69 S10G17    30.17F
WINONA         MOSUNNY   73  68  83 SE9       30.18F
AUSTIN         MOSUNNY   79  68  69 SE8       30.16F
ALBERT LEA     SUNNY     81  70  69 SE10      30.15F
DODGE CENTER   MOSUNNY   81  66  61 S9        30.17F
PRESTON        MOSUNNY   78  67  70 SE10      30.20F
OWATONNA       MOSUNNY   81  68  65 S8        30.16S
FARIBAULT      MOSUNNY   81  70  69 SE12      30.15S
$$

...ELSEWHERE IN MINNESOTA...


CITY           SKY/WX    TMP DP  RH WIND       PRES   REMARKS
MINNEAPOLIS    CLOUDY    81  67  62 S13       30.13S
INTNL FALLS    CLOUDY    67  61  81 VRB5      30.14S
DULUTH         PTSUNNY   67  62  84 S7        30.18F
RED WING       MOSUNNY   79  70  73 SE8       30.14F
REDWOOD FALLS  SUNNY     80  70  71 S13       30.09F
MANKATO        MOSUNNY   81  70  69 S10       30.13F
WORTHINGTON    MOSUNNY   82  73  74 SE10G18   30.12F
FAIRMONT       PTSUNNY   80  71  74 S12G17    30.14F
$$

...SOUTHWEST WISCONSIN...


CITY           SKY/WX    TMP DP  RH WIND       PRES   REMARKS
LA CROSSE      MOSUNNY   76  69  79 SE6       30.19F
PRAIRIE DU CHI PTSUNNY   79  67  66 CALM      30.18S
BOSCOBEL       MOSUNNY   81  71  71 VRB6      30.19F
LONE ROCK      NOT AVBL
PLATTEVILLE    MOSUNNY   80  72  78 S6        30.21S
FORT MC COY    MOSUNNY   74  67  76 S7        30.22S
MAUSTON-NEW LI MOCLDY    75  67  76 S3        30.22S
VIROQUA        CLOUDY    74  67  78 CALM      30.23F
WIS DELLS      NOT AVBL
$$

...ELSEWHERE IN WISCONSIN...


CITY           SKY/WX    TMP DP  RH WIND       PRES   REMARKS
MILWAUKEE      PTSUNNY   72  65  78 E6        30.22F
MADISON        PTSUNNY   72  66  81 VRB6      30.23S
GREEN BAY      MOSUNNY   75  66  73 SE5       30.22S
EAU CLAIRE     NOT AVBL
BLACK RVR FLS  CLOUDY    76  65  69 S5        30.20F
MEDFORD        PTSUNNY   71  65  80 CALM      30.23S
WAUSAU         CLOUDY    71  61  70 S6        30.23R
WIS RAPIDS     CLOUDY    77  65  66 VRB6      30.23F
MARSHFIELD     CLOUDY    75  62  64 VRB3      30.22F
RICE LAKE      CLOUDY    67  65  92 SE8       30.21S
$$

...NORTHEAST IOWA...


CITY           SKY/WX    TMP DP  RH WIND       PRES   REMARKS
WATERLOO       PTSUNNY   81  70  69 S6        30.16S
DUBUQUE        MOSUNNY   81  69  67 SE6       30.20F
DECORAH        MOSUNNY   79  70  73 SE7       30.20S
MASON CITY     MOSUNNY   79  70  74 SE8       30.18F
CHARLES CITY   PTSUNNY   81  73  78 SE8       30.19F
OELWEIN        PTSUNNY   81  73  78 SE7       30.19S
$$

...ELSEWHERE IN IOWA...


CITY           SKY/WX    TMP DP  RH WIND       PRES   REMARKS
DES MOINES     CLOUDY    87  75  67 SE7       30.13F HX  96
IOWA CITY      CLOUDY    83  73  72 NE3       30.17F
FORT DODGE     PTSUNNY   82  72  69 SE8       30.15S
MARSHALLTOWN   PTSUNNY   83  73  72 SE10      30.15F
CEDAR RAPIDS   SUNNY     84  76  76 SE5       30.17S HX  93
$$

...NORTHERN ILLINOIS...


CITY           SKY/WX    TMP DP  RH WIND       PRES   REMARKS
CHICAGO-OHARE  MOSUNNY   82  68  62 E8        30.19F
CHICAGO-MIDWAY MOSUNNY   82  69  64 E9        30.19F
MOLINE         PTSUNNY   85  73  67 SE6       30.16F HX  91
ROCKFORD       MOSUNNY   83  70  64 VRB5      30.20F
PEORIA         CLOUDY    86  74  67 E3        30.16F HX  94
$$

NOTE: "FAIR" INDICATES FEW OR NO CLOUDS BELOW 12,000 FEET WITH NO
SIGNIFICANT WEATHER AND/OR OBSTRUCTIONS TO VISIBILITY. WIND
SPEEDS ARE IN MILES-PER-HOUR.




USA.gov is the U.S. government's official web portal to all federal, state and local government web resources and services.